TimeEST,TemperatureF,Dew PointF,Humidity,Sea Level PressureIn,VisibilityMPH,Wind Direction,Wind SpeedMPH,Gust SpeedMPH,PrecipitationIn,Events,Conditions,WindDirDegrees,DateUTC
12:15 AM,32.9,24.3,71,30.20,10.0,South,12.7,-,N/A,,Clear,190,2013-01-19 05:15:00
12:35 AM,32.9,23.9,69,30.20,10.0,South,12.7,-,N/A,,Clear,190,2013-01-19 05:35:00
12:55 AM,33.1,23.9,69,30.19,10.0,South,13.8,-,N/A,,Clear,190,2013-01-19 05:55:00
1:15 AM,34.0,23.0,64,30.19,10.0,SSW,17.3,24.2,N/A,,Clear,200,2013-01-19 06:15:00
1:35 AM,35.6,23.0,60,30.19,10.0,SSW,20.7,26.5,N/A,,Clear,200,2013-01-19 06:35:00
1:55 AM,35.6,23.0,60,30.19,10.0,SSW,18.4,27.6,N/A,,Clear,200,2013-01-19 06:55:00
2:15 AM,35.4,23.0,61,30.18,10.0,SSW,19.6,27.6,N/A,,Clear,200,2013-01-19 07:15:00
2:35 AM,35.4,23.0,61,30.18,10.0,SSW,18.4,26.5,N/A,,Clear,200,2013-01-19 07:35:00
2:55 AM,35.6,23.0,60,30.18,10.0,SSW,16.1,25.3,N/A,,Clear,200,2013-01-19 07:55:00
3:15 AM,35.1,23.4,62,30.17,10.0,SSW,15.0,-,N/A,,Clear,200,2013-01-19 08:15:00
3:35 AM,35.6,23.7,62,30.16,10.0,SSW,19.6,25.3,N/A,,Clear,200,2013-01-19 08:35:00
3:55 AM,35.6,23.9,62,30.16,10.0,SSW,18.4,24.2,N/A,,Clear,210,2013-01-19 08:55:00
4:15 AM,35.6,23.9,62,30.16,10.0,SSW,15.0,21.9,N/A,,Clear,210,2013-01-19 09:15:00
4:35 AM,35.6,24.3,63,30.16,10.0,SSW,17.3,21.9,N/A,,Clear,210,2013-01-19 09:35:00
4:55 AM,35.4,24.4,64,30.16,10.0,SSW,19.6,24.2,N/A,,Clear,210,2013-01-19 09:55:00
5:15 AM,35.2,24.4,65,30.15,10.0,SSW,16.1,24.2,N/A,,Clear,200,2013-01-19 10:15:00
5:35 AM,35.1,24.1,64,30.15,10.0,SSW,18.4,23.0,N/A,,Clear,210,2013-01-19 10:35:00
5:55 AM,34.9,23.9,64,30.16,10.0,SSW,17.3,-,N/A,,Clear,210,2013-01-19 10:55:00
6:15 AM,34.9,23.7,64,30.16,10.0,SSW,17.3,23.0,N/A,,Clear,200,2013-01-19 11:15:00
6:35 AM,34.3,23.7,65,30.15,10.0,SSW,16.1,23.0,N/A,,Clear,200,2013-01-19 11:35:00
6:55 AM,34.7,23.7,64,30.15,10.0,SSW,17.3,-,N/A,,Clear,200,2013-01-19 11:55:00
7:15 AM,33.8,24.8,70,30.15,10.0,SSW,18.4,-,N/A,,Clear,200,2013-01-19 12:15:00
7:47 AM,35.6,24.8,65,30.15,10.0,SSW,18.4,25.3,N/A,,Clear,200,2013-01-19 12:47:00
8:47 AM,35.6,24.8,65,30.16,10.0,SSW,16.1,25.3,N/A,,Clear,210,2013-01-19 13:47:00
9:50 AM,39.2,26.6,61,30.16,10.0,SSW,21.9,27.6,N/A,,Clear,210,2013-01-19 14:50:00
10:47 AM,42.8,26.6,53,30.15,10.0,SSW,24.2,33.4,N/A,,Clear,210,2013-01-19 15:47:00
11:50 AM,46.4,26.6,46,30.10,10.0,SSW,23.0,36.8,N/A,,Clear,210,2013-01-19 16:50:00
12:50 PM,48.2,26.6,43,30.05,10.0,SSW,20.7,34.5,N/A,,Clear,210,2013-01-19 17:50:00
1:50 PM,50.0,26.6,40,30.01,10.0,SSW,24.2,34.5,N/A,,Clear,210,2013-01-19 18:50:00
2:50 PM,51.8,26.6,38,29.98,10.0,SSW,24.2,32.2,N/A,,Clear,200,2013-01-19 19:50:00
3:55 PM,51.8,24.8,35,29.94,10.0,SSW,29.9,41.4,N/A,,Clear,200,2013-01-19 20:55:00
4:50 PM,50.0,26.6,40,29.93,10.0,SSW,23.0,34.5,N/A,,Clear,200,2013-01-19 21:50:00
5:50 PM,46.4,26.6,46,29.90,10.0,South,18.4,26.5,N/A,,Clear,180,2013-01-19 22:50:00
6:50 PM,46.4,26.6,46,29.89,10.0,South,11.5,23.0,N/A,,Clear,190,2013-01-19 23:50:00
8:15 PM,44.4,27.7,52,29.90,10.0,SSW,16.1,21.9,N/A,,Clear,210,2013-01-20 01:15:00
8:35 PM,44.1,27.9,53,29.89,10.0,SSW,18.4,24.2,N/A,,Clear,210,2013-01-20 01:35:00
8:55 PM,43.7,27.9,54,29.89,10.0,SSW,18.4,23.0,N/A,,Clear,200,2013-01-20 01:55:00
9:15 PM,43.2,28.0,55,29.89,10.0,SSW,17.3,20.7,N/A,,Clear,200,2013-01-20 02:15:00
9:35 PM,43.2,28.0,55,29.89,10.0,SSW,16.1,23.0,N/A,,Clear,210,2013-01-20 02:35:00
9:55 PM,42.8,28.2,56,29.89,10.0,SSW,16.1,23.0,N/A,,Clear,210,2013-01-20 02:55:00
10:15 PM,42.8,28.2,56,29.88,10.0,SSW,15.0,-,N/A,,Clear,210,2013-01-20 03:15:00
10:35 PM,42.8,28.4,57,29.87,10.0,SSW,17.3,25.3,N/A,,Clear,200,2013-01-20 03:35:00
10:55 PM,43.0,28.9,58,29.87,10.0,SSW,19.6,25.3,N/A,,Clear,210,2013-01-20 03:55:00
11:15 PM,43.3,29.1,57,29.87,10.0,SSW,18.4,25.3,N/A,,Clear,210,2013-01-20 04:15:00
11:35 PM,43.2,29.3,58,29.86,10.0,SSW,19.6,28.8,N/A,,Clear,210,2013-01-20 04:35:00
11:55 PM,43.2,29.3,58,29.86,10.0,SSW,21.9,28.8,N/A,,Clear,210,2013-01-20 04:55:00